Location: Chippewa Lake
(41.0698°N, 81.9010°W)
Time: 02:05:40
(UTC+00:00)

Meteor 1-5 Rocket - Pass Details

Date: 09 May 2021
Orbit: 789 x 915 km, 81.2° (Epoch: 24 June)

Event Time Altitude Azimuth Distance (km) Brightness Sun altitude
Rises 02:39:25 0° 355° (N) 3,356 8.2 -20.2°
Reaches altitude 10° 02:41:56 10° 1° (N) 2,403 7.2 -20.5°
Maximum altitude 02:47:09 48° 76° (ENE) 1,031 4.4 -21.2°
Enters shadow 02:48:13 42° 111° (ESE) 1,120 4.4 -21.3°
